LOT3809 EDDH-EPRZ

Flight info

Callsign LOT3809
Flight time N/A
Altitude 23000
Route RAMAR6G RAMAR Z998 PITEN/N0428F310 L619 RADEL DCT SUBIX DCT ETITI
Aircraft B734/M-SDE2E3FHIRW/S

Departure

Time 2026-04-20 04:55
Airport Hamburg Helmut Schmidt Airport (EDDH)

Arrival

Time N/A
Airport Rzeszów-Jasionka Airport (EPRZ)
Time Latitude Longitude Altitude Speed Heading
2026-04-20 04:42 53.62838 10.00202 47 ft 0 kts 63°
2026-04-20 04:49 53.62837 10.00195 47 ft 2 kts 63°
2026-04-20 04:50 53.62830 10.00173 47 ft 2 kts 63°
2026-04-20 04:50 53.62823 10.00149 47 ft 2 kts 66°
2026-04-20 04:50 53.62817 10.00125 47 ft 1 kts 91°
2026-04-20 04:50 53.62823 10.00107 47 ft 2 kts 136°
2026-04-20 04:51 53.62831 10.00088 47 ft 2 kts 129°
2026-04-20 04:51 53.62842 10.00072 47 ft 2 kts 148°
2026-04-20 04:51 53.62847 10.00067 46 ft 0 kts 154°
2026-04-20 04:53 53.62822 10.00088 46 ft 9 kts 153°
2026-04-20 04:53 53.62751 10.00150 47 ft 13 kts 152°
2026-04-20 04:53 53.62663 10.00229 47 ft 15 kts 151°
2026-04-20 04:53 53.62568 10.00208 48 ft 17 kts 244°
2026-04-20 04:54 53.62569 10.00006 47 ft 24 kts 321°
2026-04-20 04:54 53.62873 9.99753 46 ft 83 kts 333°
2026-04-20 04:54 53.63615 9.99102 71 ft 150 kts 333°
2026-04-20 04:54 53.64599 9.98206 643 ft 167 kts 333°
2026-04-20 04:55 53.65542 9.97278 1792 ft 156 kts 336°
2026-04-20 04:55 53.66481 9.96327 2514 ft 169 kts 338°
2026-04-20 04:55 53.67591 9.95335 3097 ft 190 kts 340°
2026-04-20 04:55 53.68798 9.94372 3911 ft 197 kts 346°
2026-04-20 04:56 53.70099 9.93791 4771 ft 199 kts 359°
2026-04-20 04:56 53.71539 9.93758 5331 ft 217 kts 11°
2026-04-20 04:56 53.73065 9.94352 5853 ft 235 kts 22°
2026-04-20 04:56 53.74537 9.95588 6821 ft 237 kts 34°
2026-04-20 04:57 53.75643 9.97559 7604 ft 243 kts 65°
2026-04-20 04:57 53.75930 10.00364 8507 ft 247 kts 85°
2026-04-20 04:57 53.76181 10.03243 9267 ft 252 kts 72°
2026-04-20 04:57 53.76771 10.06038 10035 ft 256 kts 66°
2026-04-20 04:58 53.77517 10.08747 10788 ft 260 kts 63°
2026-04-20 04:58 53.78333 10.11527 11487 ft 268 kts 63°
2026-04-20 04:58 53.79192 10.14418 11765 ft 289 kts 64°
2026-04-20 04:58 53.80125 10.17577 12153 ft 304 kts 64°
2026-04-20 04:59 53.81051 10.20771 12754 ft 311 kts 66°
2026-04-20 04:59 53.81369 10.21871 12948 ft 313 kts 65°